EST,Max TemperatureF,Mean TemperatureF,Min TemperatureF,Max Dew PointF,MeanDew PointF,Min DewpointF,Max Humidity, Mean Humidity, Min Humidity, Max Sea Level PressureIn, Mean Sea Level PressureIn, Min Sea Level PressureIn, Max VisibilityMiles, Mean VisibilityMiles, Min VisibilityMiles, Max Wind SpeedMPH, Mean Wind SpeedMPH, Max Gust SpeedMPH,PrecipitationIn, CloudCover, Events, WindDirDegrees
2013-1-1,48,46,44,46,40,30,100,79,53,30.09,30.01,29.92,10,9,4,10,5,9,0.19,4,Rain,227
2013-1-2,46,42,35,46,39,36,100,95,81,30.21,30.09,29.97,10,7,3,12,5,,0.28,6,Rain,33
2013-1-3,41,34,28,37,31,27,100,82,61,30.26,30.22,30.18,10,9,4,6,1,,0.00,4,,36
2013-1-4,46,36,26,30,28,25,100,72,50,30.28,30.22,30.15,10,10,4,13,4,17,0.00,0,,251
2013-1-5,51,40,28,36,28,25,87,67,38,30.39,30.31,30.23,10,10,10,8,4,,0.00,0,,221
2013-1-6,48,42,35,41,38,36,100,84,71,30.27,30.15,30.07,10,10,5,8,4,,0.02,5,Rain,216
2013-1-7,51,40,28,37,32,27,100,79,47,30.47,30.36,30.16,10,10,10,13,3,17,0.00,0,,2
2013-1-8,57,42,26,46,36,27,100,84,58,30.48,30.43,30.38,10,10,10,6,0,,0.00,2,,91
2013-1-9,68,52,35,54,46,34,100,81,56,30.44,30.38,30.32,10,10,10,10,2,,0.00,1,,225
2013-1-10,57,45,33,50,37,28,100,69,36,30.57,30.50,30.39,10,10,2,13,4,18,0.00,0,,30
2013-1-11,60,46,32,61,48,30,100,94,77,30.51,30.30,30.13,10,9,0,13,2,,0.02,6,Fog-Rain,138
2013-1-12,59,56,53,57,56,54,100,99,94,30.18,30.15,30.12,10,4,0,10,3,,0.00,8,Fog,248
2013-1-13,68,60,51,63,57,52,100,98,83,30.16,30.12,30.07,10,5,0,7,4,,0.00,5,Fog,167
2013-1-14,69,60,48,63,59,46,100,94,73,30.21,30.14,30.09,10,8,5,16,5,22,0.05,4,Rain,218
2013-1-15,48,46,44,48,46,45,100,99,93,30.27,30.21,30.10,10,6,0,15,8,24,0.21,8,Fog-Rain,38
2013-1-16,51,46,42,52,46,43,100,100,100,30.10,30.03,29.98,10,5,0,8,3,,0.06,8,Fog-Rain,302
2013-1-17,48,42,33,48,44,34,100,98,87,30.10,30.03,29.98,10,6,0,16,5,28,1.18,8,Fog-Rain-Snow,30
2013-1-18,44,36,28,36,30,21,100,84,42,30.56,30.39,30.06,10,8,2,12,5,22,0.22,3,Snow,329
2013-1-19,55,40,26,36,31,25,100,72,38,30.52,30.34,30.15,10,10,10,12,3,,0.00,0,,206
2013-1-20,62,50,37,39,36,32,87,61,36,30.13,30.03,29.93,10,10,10,17,8,26,0.00,0,,238
2013-1-21,57,44,30,39,33,23,100,66,37,30.10,29.98,29.82,10,10,7,14,3,28,0.00,0,,199
2013-1-22,42,32,21,25,12,1,80,45,25,30.28,30.15,29.91,10,10,10,17,6,24,0.00,0,,302
2013-1-23,33,26,19,18,9,3,74,49,28,30.38,30.28,30.11,10,10,10,13,3,18,0.00,3,,270
2013-1-24,33,27,21,27,14,3,86,56,34,30.55,30.28,29.97,10,10,2,17,5,25,0.00,4,Snow,342
2013-1-25,28,22,15,25,17,7,100,79,51,30.54,30.35,30.11,10,8,0,8,1,,0.19,4,Snow,228
2013-1-26,33,24,15,28,24,14,100,94,81,30.44,30.24,30.11,10,7,0,8,2,,0.01,5,Fog,265
2013-1-27,39,29,19,28,24,19,100,81,48,30.61,30.54,30.44,10,8,0,10,1,,0.00,2,Fog,55
2013-1-28,51,38,26,46,35,25,93,85,76,30.55,30.37,30.18,10,10,7,13,4,21,0.00,6,,203
2013-1-29,73,60,46,57,52,46,100,83,57,30.19,30.14,30.09,10,9,4,12,7,17,0.00,0,,220
2013-1-30,75,66,57,64,61,55,100,82,65,30.09,29.84,29.49,10,10,5,24,12,38,0.00,3,,186
2013-1-31,71,54,37,64,37,21,100,59,37,30.01,29.71,29.34,10,10,7,30,20,48,0.57,3,Rain,250